Weather History for Stony Rapids, SK

Change the Weather History Date:

Wednesday, December 26, 2012

  Actual Average Record
Temperature  
Mean Temperature -11 °F -  
Max Temperature -5 °F -0 °F 24 °F (2001)
Min Temperature -17 °F -17 °F -34 °F (2013)
Degree Days  
Heating Degree Days 76    
Moisture  
Dew Point -14 °F    
Average Humidity 74    
Maximum Humidity 77    
Minimum Humidity 62    
Precipitation  
Precipitation 0.01 in - - ()
Sea Level Pressure  
Sea Level Pressure 30.27 in    
Wind  
Wind Speed 5 mph ()    
Max Wind Speed 9 mph    
Max Gust Speed -    
Visibility 6.7 miles    
Events Snow    
Averages and records for this station are not official NWS values.
T = Trace of Precipitation, MM = Missing Value Source: Averaged Metar Reports

Daily Weather History Graph

Daily Weather History Graph

Search for Another Location

Airport:

Trip Planner

Search our weather history database for the weather conditions in past years. The results will help you decide how hot, cold, wet, or windy it might be!

Date:

Astronomy

Dec. 26, 2012 Rise Set
Actual Time 10:00 AM CST 4:08 PM CST
Civil Twilight 9:04 AM CST 5:03 PM CST
Nautical Twilight 8:09 AM CST 5:58 PM CST
Astronomical Twilight 7:19 AM CST 6:49 PM CST
Moon 3:12 PM CST (12/26) 8:17 AM CST (12/26)
Length of Visible Light 7h 59m
Length of Day
6h 08m
Waxing Gibbous, 97% of the Moon is Illuminated
Dec 26
Waxing Gibbous
Dec 28
Full
Jan 4
Last Quarter
Jan 11
New
Jan 18
First Quarter

Hourly Weather History & Observations

Time (CST) Temp. Windchill Dew Point Humidity Pressure Visibility Wind Dir Wind Speed Gust Speed Precip Events Conditions
12:00 AM -18 °F - -23 °F 68% 30.40 in 10 mi West 2.3 mph - -  
12:00 AM -16.6 °F - -22.0 °F 76% 30.40 in 9.0 mi West 2.3 mph - N/A   Clear
12:32 AM -16.6 °F -26.8 °F -22.0 °F 76% 30.39 in 9.0 mi West 3.5 mph - N/A Snow Light Snow
12:41 AM -14.8 °F -27.2 °F -22.0 °F 70% 30.38 in 9.0 mi West 4.6 mph - N/A   Mostly Cloudy
12:50 AM -14.8 °F -27.2 °F -20.2 °F 77% 30.38 in 9.0 mi West 4.6 mph - N/A Snow Light Snow
12:59 AM -14.8 °F -24.8 °F -20.2 °F 77% 30.38 in 9.0 mi West 3.5 mph - N/A   Overcast
1:00 AM -14.8 °F -24.8 °F -20.2 °F 77% 30.38 in 9.0 mi West 3.5 mph - N/A   Overcast
1:27 AM -13.0 °F -25.1 °F -18.4 °F 77% 30.38 in 9.0 mi West 4.6 mph - N/A   Overcast
1:40 AM -11.2 °F -20.6 °F -16.6 °F 77% 30.37 in 9.0 mi West 3.5 mph - N/A Snow Light Snow
2:00 AM -11.2 °F -20.6 °F -16.6 °F 77% 30.37 in 9.0 mi West 3.5 mph - N/A Snow Light Snow
3:00 AM -13.0 °F - -18.4 °F 77% 30.36 in 9.0 mi Variable 2.3 mph - N/A Snow Light Snow
3:48 AM -9.4 °F -20.9 °F -14.8 °F 77% 30.36 in 5.0 mi West 4.6 mph - N/A Snow Light Snow
3:53 AM -9.4 °F -20.9 °F -14.8 °F 77% 30.36 in 6.0 mi West 4.6 mph - N/A Snow Light Snow
4:00 AM -9.4 °F -20.9 °F -14.8 °F 77% 30.36 in 8.0 mi West 4.6 mph - N/A Snow Light Snow
4:11 AM -9.4 °F -20.9 °F -14.8 °F 77% 30.35 in 7.0 mi West 4.6 mph - N/A   Overcast
4:22 AM -9.4 °F -20.9 °F -14.8 °F 77% 30.35 in 6.0 mi West 4.6 mph - N/A Snow Light Snow
4:49 AM -9.4 °F -22.7 °F -14.8 °F 77% 30.33 in 9.0 mi West 5.8 mph - N/A   Overcast
5:00 AM -7.6 °F -20.6 °F -14.8 °F 71% 30.33 in 9.0 mi West 5.8 mph - N/A   Overcast
6:00 AM -8 °F - -13 °F 66% 30.32 in 10 mi West 5.8 mph - -   Overcast
6:30 AM -7.6 °F -20.6 °F -13.0 °F 77% 30.31 in 6.0 mi West 5.8 mph - N/A Snow Light Snow
6:58 AM -7.6 °F -20.6 °F -13.0 °F 77% 30.31 in 7.0 mi West 5.8 mph - N/A Snow Light Snow
7:00 AM -7.6 °F -22.1 °F -13.0 °F 77% 30.31 in 7.0 mi West 6.9 mph - N/A Snow Light Snow
8:00 AM -7.6 °F -24.6 °F -13.0 °F 77% 30.30 in 9.0 mi West 9.2 mph - N/A Snow Light Snow
9:00 AM -7.6 °F -23.4 °F -13.0 °F 77% 30.29 in 9.0 mi WNW 8.1 mph - N/A Snow Light Snow
10:00 AM -7.6 °F -20.6 °F -13.0 °F 77% 30.28 in 9.0 mi West 5.8 mph - N/A Snow Light Snow
11:00 AM -7.6 °F -20.6 °F -13.0 °F 77% 30.27 in 9.0 mi West 5.8 mph - N/A Snow Light Snow
12:00 PM -7 °F - -13 °F 62% 30.27 in 7 mi West 9.2 mph - - Snow Light Snow
12:00 PM -7.6 °F -24.6 °F -13.0 °F 77% 30.26 in 7.0 mi West 9.2 mph - N/A Snow Light Snow
12:06 PM -7.6 °F -23.4 °F -13.0 °F 77% 30.27 in 5.0 mi West 8.1 mph - N/A Snow Light Snow
12:24 PM -5.8 °F -21.2 °F -13.0 °F 71% 30.26 in 6.0 mi West 8.1 mph - N/A Snow Light Snow
1:00 PM -5.8 °F -22.4 °F -13.0 °F 71% 30.25 in 7.0 mi West 9.2 mph - N/A Snow Light Snow
1:15 PM -5.8 °F -19.9 °F -13.0 °F 71% 30.24 in 5.0 mi WSW 6.9 mph - N/A Snow Light Snow
1:25 PM -5.8 °F -21.2 °F -13.0 °F 71% 30.24 in 6.0 mi West 8.1 mph - N/A Snow Light Snow
2:00 PM -5.8 °F -22.4 °F -13.0 °F 71% 30.24 in 9.0 mi West 9.2 mph - N/A Snow Light Snow
2:46 PM -5.8 °F -18.4 °F -13.0 °F 71% 30.24 in 3.0 mi West 5.8 mph - N/A Snow Light Snow
2:56 PM -5.8 °F -19.9 °F -13.0 °F 71% 30.24 in 9.0 mi West 6.9 mph - N/A Snow Light Snow
3:00 PM -5.8 °F -19.9 °F -13.0 °F 71% 30.24 in 9.0 mi West 6.9 mph - N/A Snow Light Snow
3:21 PM -5.8 °F -22.4 °F -11.2 °F 77% 30.24 in 9.0 mi West 9.2 mph - N/A   Overcast
3:27 PM -5.8 °F -21.2 °F -11.2 °F 77% 30.24 in 9.0 mi West 8.1 mph - N/A Snow Light Snow
4:00 PM -5.8 °F -22.4 °F -11.2 °F 77% 30.23 in 9.0 mi West 9.2 mph - N/A Snow Light Snow
4:44 PM -5.8 °F -19.9 °F -11.2 °F 77% 30.23 in 5.0 mi West 6.9 mph - N/A Snow Light Snow
5:00 PM -5.8 °F -22.4 °F -11.2 °F 77% 30.23 in 3.0 mi West 9.2 mph - N/A Snow Light Snow
5:10 PM -5.8 °F -19.9 °F -11.2 °F 77% 30.23 in 6.0 mi West 6.9 mph - N/A Snow Light Snow
5:20 PM -5.8 °F -22.4 °F -11.2 °F 77% 30.23 in 5.0 mi West 9.2 mph - N/A Snow Light Snow
5:26 PM -5.8 °F -22.4 °F -11.2 °F 77% 30.23 in 6.0 mi West 9.2 mph - N/A Snow Light Snow
5:36 PM -5.8 °F -19.9 °F -11.2 °F 77% 30.23 in 5.0 mi West 6.9 mph - N/A Snow Light Snow
5:44 PM -5.8 °F -22.4 °F -13.0 °F 71% 30.23 in 2.5 mi West 9.2 mph - N/A Snow Light Snow
5:54 PM -5.8 °F -21.2 °F -13.0 °F 71% 30.23 in 3.0 mi West 8.1 mph - N/A Snow Light Snow
6:00 PM -7 °F - -12 °F 66% 30.22 in 5 mi West 8.1 mph - - Snow Light Snow
6:00 PM -5.8 °F -21.2 °F -13.0 °F 71% 30.22 in 5.0 mi West 8.1 mph - N/A Snow Light Snow
6:01 PM -5.8 °F -21.2 °F -13.0 °F 71% 30.22 in 6.0 mi West 8.1 mph - N/A Snow Light Snow
6:10 PM -7.6 °F -24.6 °F -13.0 °F 77% 30.22 in 5.0 mi West 9.2 mph - N/A Snow Light Snow
6:15 PM -5.8 °F -22.4 °F -13.0 °F 71% 30.22 in 6.0 mi West 9.2 mph - N/A Snow Light Snow
7:00 PM -5.8 °F -18.4 °F -13.0 °F 71% 30.21 in 9.0 mi West 5.8 mph - N/A Snow Light Snow
7:16 PM -5.8 °F -18.4 °F -13.0 °F 71% 30.21 in 5.0 mi West 5.8 mph - N/A Snow Light Snow
7:32 PM -5.8 °F -18.4 °F -11.2 °F 77% 30.21 in 2.2 mi West 5.8 mph - N/A Snow Light Snow
7:44 PM -5.8 °F -18.4 °F -13.0 °F 71% 30.21 in 2.5 mi West 5.8 mph - N/A Snow Light Snow
7:46 PM -5.8 °F -16.7 °F -13.0 °F 71% 30.21 in 3.0 mi West 4.6 mph - N/A Snow Light Snow
8:00 PM -7.6 °F -22.1 °F -13.0 °F 77% 30.21 in 5.0 mi West 6.9 mph - N/A Snow Light Snow
8:01 PM -5.8 °F -18.4 °F -13.0 °F 71% 30.21 in 6.0 mi West 5.8 mph - N/A Snow Light Snow
8:16 PM -5.8 °F -16.7 °F -13.0 °F 71% 30.20 in 5.0 mi West 4.6 mph - N/A Snow Light Snow
8:22 PM -7.6 °F -20.6 °F -13.0 °F 77% 30.20 in 2.0 mi West 5.8 mph - N/A Snow Light Snow
8:28 PM -7.6 °F -20.6 °F -13.0 °F 77% 30.20 in 2.5 mi West 5.8 mph - N/A Snow Light Snow
8:29 PM -5.8 °F -18.4 °F -13.0 °F 71% 30.20 in 3.0 mi West 5.8 mph - N/A Snow Light Snow
8:34 PM -7.6 °F -20.6 °F -13.0 °F 77% 30.20 in 7.0 mi West 5.8 mph - N/A Snow Light Snow
9:00 PM -7.6 °F -22.1 °F -13.0 °F 77% 30.19 in 9.0 mi West 6.9 mph - N/A Snow Light Snow
10:00 PM -7.6 °F -22.1 °F -13.0 °F 77% 30.19 in 9.0 mi West 6.9 mph - N/A Snow Light Snow
11:00 PM -7.6 °F -23.4 °F -13.0 °F 77% 30.19 in 9.0 mi West 8.1 mph - N/A Snow Light Snow
11:42 PM -7.6 °F -23.4 °F -13.0 °F 77% 30.19 in 5.0 mi West 8.1 mph - N/A Snow Light Snow